Hourly Weather Holubivka

Today, 13 April, Tuesday

Time Temperature Precipitation Wind Pressure Humidity
00:00 +8°C° 0 mm 2 mps 736 mmHg 70%
01:00 +7°C° 0 mm 2 mps 736 mmHg 73%
02:00 +7°C° 0 mm 2 mps 736 mmHg 76%
03:00 +6°C° 0 mm 2 mps 735 mmHg 78%
04:00 +6°C° 0 mm 2 mps 735 mmHg 80%
05:00 +6°C° 0 mm 2 mps 735 mmHg 81%
06:00 +7°C° 0 mm 2 mps 735 mmHg 76%
07:00 +8°C° 0 mm 2 mps 735 mmHg 71%
08:00 +10°C° 0 mm 2 mps 736 mmHg 66%
09:00 +13°C° 0 mm 2 mps 735 mmHg 59%
10:00 +14°C° 0 mm 2 mps 735 mmHg 53%
11:00 +16°C° 0 mm 2 mps 735 mmHg 46%
12:00 +16°C° 0 mm 1 mps 735 mmHg 43%
13:00 +18°C° 0 mm 1 mps 734 mmHg 40%
14:00 +19°C° 0 mm 1 mps 734 mmHg 37%
15:00 +19°C° 0 mm 1 mps 734 mmHg 39%
16:00 +18°C° 0 mm 1 mps 733 mmHg 40%
17:00 +18°C° 0 mm 1 mps 733 mmHg 41%
18:00 +11°C° 0 mm 4 mps 733 mmHg 68%
19:00 +10°C° 0 mm 3 mps 733 mmHg 71%
20:00 +10°C° 0 mm 3 mps 733 mmHg 74%
21:00 +9°C° 0 mm 3 mps 733 mmHg 75%
22:00 +9°C° 0 mm 3 mps 733 mmHg 75%
23:00 +9°C° 0 mm 3 mps 733 mmHg 75%

Tomorrow, 14 April, Wednesday

Time Temperature Precipitation Wind Pressure Humidity
00:00 +9°C° 0 mm 3 mps 733 mmHg 76%
01:00 +9°C° 0 mm 3 mps 732 mmHg 76%
02:00 +8°C° 0 mm 2 mps 732 mmHg 77%
03:00 +8°C° 0 mm 3 mps 732 mmHg 78%
04:00 +8°C° 0 mm 3 mps 732 mmHg 79%
05:00 +7°C° 0 mm 3 mps 732 mmHg 80%
06:00 +8°C° 0.2 mm 3 mps 732 mmHg 80%
07:00 +8°C° 0.2 mm 3 mps 732 mmHg 79%
08:00 +8°C° 0.2 mm 3 mps 732 mmHg 79%
09:00 +8°C° 0.1 mm 4 mps 732 mmHg 71%
10:00 +11°C° 0.1 mm 4 mps 732 mmHg 64%
11:00 +12°C° 0.1 mm 5 mps 732 mmHg 56%
12:00 +12°C° 0 mm 4 mps 731 mmHg 54%
13:00 +13°C° 0 mm 4 mps 731 mmHg 51%
14:00 +13°C° 0 mm 4 mps 731 mmHg 49%
15:00 +13°C° 0.1 mm 4 mps 731 mmHg 54%
16:00 +12°C° 0.1 mm 4 mps 731 mmHg 59%
17:00 +11°C° 0.1 mm 3 mps 730 mmHg 63%
18:00 +11°C° 0.2 mm 3 mps 731 mmHg 68%
19:00 +10°C° 0.2 mm 2 mps 731 mmHg 72%
20:00 +9°C° 0.2 mm 2 mps 731 mmHg 77%
21:00 +9°C° 0.1 mm 2 mps 731 mmHg 79%
22:00 +8°C° 0.1 mm 2 mps 731 mmHg 81%
23:00 +8°C° 0.1 mm 2 mps 730 mmHg 82%

Day after tomorrow, 15 April, Thursday

Time Temperature Precipitation Wind Pressure Humidity
00:00 +8°C° 0.4 mm 2 mps 730 mmHg 85%
01:00 +8°C° 0.4 mm 1 mps 730 mmHg 88%
02:00 +8°C° 0.4 mm 1 mps 730 mmHg 90%
03:00 +7°C° 1 mm 2 mps 730 mmHg 91%
04:00 +7°C° 1 mm 2 mps 730 mmHg 92%
05:00 +7°C° 1 mm 2 mps 729 mmHg 93%
06:00 +7°C° 0.4 mm 3 mps 730 mmHg 93%
07:00 +7°C° 0.4 mm 3 mps 730 mmHg 93%
08:00 +7°C° 0.4 mm 3 mps 730 mmHg 93%
09:00 +7°C° 0.2 mm 3 mps 730 mmHg 92%
10:00 +8°C° 0.2 mm 3 mps 730 mmHg 91%
11:00 +8°C° 0.2 mm 3 mps 730 mmHg 90%
12:00 +8°C° 0.2 mm 3 mps 730 mmHg 88%
13:00 +8°C° 0.2 mm 3 mps 730 mmHg 86%
14:00 +9°C° 0.2 mm 3 mps 730 mmHg 83%
15:00 +8°C° 0.2 mm 3 mps 730 mmHg 85%
16:00 +7°C° 0.2 mm 4 mps 730 mmHg 87%
17:00 +6°C° 0.2 mm 4 mps 729 mmHg 89%
18:00 +6°C° 0.3 mm 4 mps 730 mmHg 91%
19:00 +5°C° 0.3 mm 4 mps 730 mmHg 92%
20:00 +5°C° 0.3 mm 4 mps 730 mmHg 94%
21:00 +4°C° 0.2 mm 4 mps 730 mmHg 94%
22:00 +3°C° 0.2 mm 5 mps 729 mmHg 94%
23:00 +2°C° 0.2 mm 5 mps 729 mmHg 94%

16 April, Friday

Time Temperature Precipitation Wind Pressure Humidity
00:00 +2°C° 0.1 mm 5 mps 729 mmHg 94%
01:00 +2°C° 0.1 mm 5 mps 729 mmHg 94%
02:00 +2°C° 0.1 mm 5 mps 729 mmHg 94%
03:00 +3°C° 0.1 mm 4 mps 728 mmHg 95%
04:00 +3°C° 0.1 mm 4 mps 728 mmHg 95%
05:00 +3°C° 0.1 mm 4 mps 728 mmHg 96%
06:00 +3°C° 0.7 mm 4 mps 728 mmHg 96%
07:00 +4°C° 0.7 mm 4 mps 728 mmHg 96%
08:00 +4°C° 0.7 mm 4 mps 728 mmHg 96%
09:00 +4°C° 0.7 mm 4 mps 728 mmHg 95%
10:00 +4°C° 0.7 mm 4 mps 728 mmHg 94%
11:00 +5°C° 0.7 mm 4 mps 728 mmHg 94%
12:00 +5°C° 0.2 mm 4 mps 728 mmHg 93%
13:00 +5°C° 0.2 mm 4 mps 729 mmHg 92%
14:00 +5°C° 0.2 mm 4 mps 729 mmHg 92%
15:00 +5°C° 0.3 mm 4 mps 729 mmHg 92%
16:00 +4°C° 0.3 mm 4 mps 729 mmHg 93%
17:00 +4°C° 0.3 mm 4 mps 730 mmHg 94%
18:00 +4°C° 0.2 mm 4 mps 730 mmHg 93%
19:00 +4°C° 0.2 mm 3 mps 731 mmHg 93%
20:00 +4°C° 0.2 mm 3 mps 731 mmHg 93%
21:00 +5°C° 0.1 mm 2 mps 732 mmHg 93%
22:00 +5°C° 0.1 mm 2 mps 732 mmHg 93%
23:00 +5°C° 0.1 mm 2 mps 732 mmHg 92%

17 April, Saturday

Time Temperature Precipitation Wind Pressure Humidity
00:00 +5°C° 0 mm 1 mps 733 mmHg 93%
01:00 +5°C° 0 mm 1 mps 733 mmHg 93%
02:00 +5°C° 0 mm 1 mps 733 mmHg 93%
03:00 +5°C° 0.3 mm 1 mps 733 mmHg 93%
04:00 +5°C° 0.3 mm 1 mps 734 mmHg 93%
05:00 +4°C° 0.3 mm 2 mps 734 mmHg 92%
06:00 +4°C° 0.1 mm 2 mps 734 mmHg 90%
07:00 +4°C° 0.1 mm 2 mps 735 mmHg 87%
08:00 +4°C° 0.1 mm 2 mps 735 mmHg 85%
09:00 +5°C° 0 mm 2 mps 735 mmHg 82%
10:00 +5°C° 0 mm 2 mps 736 mmHg 78%
11:00 +6°C° 0 mm 2 mps 736 mmHg 75%
12:00 +6°C° 0 mm 2 mps 736 mmHg 76%
13:00 +6°C° 0 mm 2 mps 737 mmHg 76%
14:00 +6°C° 0 mm 2 mps 737 mmHg 77%
15:00 +6°C° 0 mm 2 mps 737 mmHg 78%
16:00 +6°C° 0 mm 2 mps 737 mmHg 79%
17:00 +6°C° 0 mm 2 mps 737 mmHg 80%
18:00 +6°C° 0 mm 2 mps 737 mmHg 84%
19:00 +5°C° 0 mm 2 mps 737 mmHg 87%
20:00 +6°C° 0 mm 1 mps 737 mmHg 90%
21:00 +6°C° 0 mm 1 mps 738 mmHg 89%
22:00 +6°C° 0 mm 1 mps 738 mmHg 89%
23:00 +5°C° 0 mm 0 mps 738 mmHg 88%

18 April, Sunday

Time Temperature Precipitation Wind Pressure Humidity
00:00 +5°C° 0 mm 0 mps 738 mmHg 87%
01:00 +5°C° 0 mm 0 mps 738 mmHg 86%
02:00 +5°C° 0 mm 0 mps 738 mmHg 86%
03:00 +5°C° 0 mm 0 mps 738 mmHg 85%
04:00 +6°C° 0 mm 1 mps 738 mmHg 85%
05:00 +6°C° 0 mm 1 mps 738 mmHg 85%
06:00 +6°C° 0 mm 1 mps 738 mmHg 84%
07:00 +6°C° 0 mm 2 mps 739 mmHg 83%
08:00 +6°C° 0 mm 2 mps 739 mmHg 82%
09:00 +7°C° 0 mm 2 mps 739 mmHg 78%
10:00 +8°C° 0 mm 3 mps 739 mmHg 73%
11:00 +7°C° 0 mm 4 mps 739 mmHg 69%
12:00 +8°C° 0 mm 4 mps 740 mmHg 67%
13:00 +8°C° 0 mm 4 mps 740 mmHg 65%
14:00 +10°C° 0 mm 4 mps 740 mmHg 62%
15:00 +10°C° 0 mm 4 mps 739 mmHg 65%
16:00 +10°C° 0 mm 3 mps 739 mmHg 67%
17:00 +10°C° 0 mm 3 mps 739 mmHg 70%
18:00 +9°C° 0.1 mm 3 mps 739 mmHg 72%
19:00 +9°C° 0.1 mm 3 mps 740 mmHg 75%
20:00 +8°C° 0.1 mm 3 mps 740 mmHg 78%
21:00 +8°C° 0 mm 3 mps 740 mmHg 79%
22:00 +8°C° 0 mm 3 mps 740 mmHg 80%
23:00 +8°C° 0 mm 3 mps 740 mmHg 82%
Show more